[[{"header":{"parameterUnit":"m.s-1","parameterCategory":1,"la1":30.2991,"la2":30.254,"lo1":-89.0895,"lo2":-89.0444,"dy":0.0017,"dx":0.0017,"nx":28,"ny":28,"refTime":"2025-06-06T21:00:00:Z","depth":0,"parameterNumber":2,"parameterNumberName":"U-component_of_WINDS"},"data":[0,0,0,0,0,0,0,0,0,0,0,0,0,0,0,0,0,0,0,0,0,0,0,0,0,0,0,0,0,0,0,0,0,0,0,0,0,0,0,0,0,0,0,0,0,0,0,0,0,0,0,0,0,0,0,0,0,0,3.6407,3.6408,0,3.6555,3.6557,3.6559,3.6555,3.6553,3.6551,3.6549,3.6703,3.6709,3.6714,0,0,0,0,0,0,0,0,0,0,0,0,0,3.612,3.6125,3.6407,3.6409,3.641,3.6555,3.6557,3.6559,3.6555,3.6553,3.6551,3.6548,3.6701,3.6708,3.6715,0,0,0,0,0,0,0,0,0,0,0,0,0,3.6254,3.6127,3.6406,3.6426,3.6429,3.6555,3.6557,3.656,3.6556,3.6553,3.655,3.6547,3.6698,3.6707,3.6716,3.6832,0,0,3.6743,3.6747,0,0,0,0,0,0,0,0,3.6246,3.6265,3.6421,3.6425,3.6429,3.6534,3.6512,3.6651,3.6557,3.6508,3.6549,3.6546,3.6649,3.6662,3.6696,3.6839,3.6846,3.6744,3.675,3.6753,3.6756,0,0,0,0,0,0,0,3.6237,3.6258,3.6466,3.6423,3.6428,3.6427,3.6443,3.6539,3.6594,3.6512,3.6512,3.653,3.665,3.6688,3.67,3.6848,3.6744,3.6752,3.6757,3.6761,3.7092,3.7095,0,0,0,0,0,0,3.6224,3.6251,3.6461,3.647,3.6328,3.6435,3.6453,3.6503,3.6593,3.6603,3.6532,3.6529,3.6674,3.669,3.6705,3.6845,3.6753,3.6762,3.6767,3.7088,3.7092,3.7096,0,0,0,0,0,0,3.6218,3.6242,3.6455,3.636,3.6387,3.6443,3.65,3.6508,3.6545,3.6608,3.6618,3.656,3.6672,3.6693,3.68,3.6851,3.6766,3.6774,3.7084,3.709,3.7094,3.7127,0,0,0,0,0,0,3.6209,3.624,3.6285,3.6361,3.6392,3.6547,3.6503,3.6513,3.656,3.6557,3.6637,3.6647,3.6671,3.6787,3.6809,3.6861,3.6781,3.708,3.7087,3.7093,3.7122,3.7133,3.7142,0,0,0,0,0,3.6199,3.6289,3.6287,3.6313,3.6449,3.655,3.6568,3.6594,3.6564,3.6609,3.665,3.6644,3.6842,3.6798,3.6823,3.6879,3.7077,3.7085,3.7092,3.7117,3.7131,3.7142,0,0,0,0,0,0,3.6218,3.63,3.6298,3.6416,3.6476,3.6549,3.6607,3.6607,3.6677,3.6672,3.6702,3.6719,3.6826,3.6864,3.6813,3.6995,3.6956,3.6969,3.6966,3.6979,3.6989,3.6977,3.6788,0,0,0,0,0,3.6236,3.6311,3.6378,3.6475,3.6505,3.6551,3.6596,3.661,3.6674,3.6699,3.6748,3.681,3.6885,3.6935,3.7008,3.7128,3.7144,3.7179,3.7189,3.7197,3.7207,3.7271,3.7286,3.7121,3.7121,3.7121,0,0,3.6274,3.6327,3.6373,3.648,3.6528,3.6604,3.6572,3.6655,3.6711,3.6712,3.6815,3.6853,3.6924,3.7037,3.709,3.7072,3.7256,3.7206,3.7212,3.7219,3.728,3.7296,3.7309,3.7126,3.7125,3.7125,0,0,3.6381,3.643,3.6515,3.6563,3.6636,3.6666,3.6686,3.676,3.6784,3.6888,3.689,3.6958,3.7089,3.7138,3.7181,3.7305,3.7302,3.7329,3.7381,3.7443,3.7456,3.7468,3.751,3.7525,3.7339,3.7339,3.7339,0,3.6418,3.6533,3.6559,3.6641,3.6687,3.6691,3.6777,3.6823,3.6917,3.6948,3.6927,3.7089,3.7138,3.7262,3.7292,3.7327,3.735,3.7319,3.7452,3.7464,3.7475,3.7516,3.7532,3.7342,3.7342,3.7341,3.7341,0,3.6574,3.6654,3.6714,3.6802,3.6856,3.694,3.6978,3.7029,3.7039,3.7071,3.7176,3.7234,3.7318,3.7349,3.7361,3.7474,3.7461,3.7446,3.7406,3.7493,3.7531,3.7547,3.7346,3.7345,3.7344,3.7343,0,0,3.6697,3.6798,3.6819,3.6859,3.6939,3.7001,3.7085,3.7166,3.7208,3.7273,3.7343,3.7453,3.7439,3.7487,3.7504,3.7558,3.765,3.7536,3.7538,3.7553,3.7777,3.7786,3.7803,3.7649,3.7653,3.7655,3.777,0,3.6811,3.6958,3.6983,3.7112,3.7185,3.7189,3.7261,3.7318,3.735,3.7416,3.7452,3.7528,3.7505,3.7534,3.7588,3.7627,3.7695,3.762,3.7713,3.7716,3.7693,3.7824,3.7834,3.794,3.7785,3.7788,3.779,0,3.6963,3.7029,3.7165,3.7234,3.7265,3.733,3.7406,3.747,3.7534,3.7553,3.7606,3.7616,3.7702,3.7661,3.7779,3.7727,3.7767,3.7792,3.7797,3.7805,3.7757,3.7833,3.7974,3.7989,3.7814,3.7812,3.7811,0,3.7035,3.716,3.7256,3.729,3.7374,3.7418,3.7455,3.7517,3.7564,3.763,3.766,3.7737,3.7778,3.7837,3.7867,3.7834,3.7982,3.7943,3.7999,3.7999,3.8029,3.8026,3.8176,3.8059,3.8058,3.8058,3.8058,0,3.7158,3.7241,3.729,3.7349,3.7441,3.7469,3.756,3.7596,3.765,3.7716,3.7725,3.7787,3.7824,3.7891,3.7915,3.8008,3.8028,3.8045,3.805,3.8043,3.804,3.8068,3.806,3.8062,3.8061,3.806,3.806,0,3.7254,3.7291,3.7396,3.7466,3.7485,3.755,3.7609,3.7667,3.7698,3.7781,3.7803,3.7852,3.7931,3.7967,3.8066,3.8082,3.8187,3.8189,3.8165,3.8166,3.8219,3.8213,3.839,3.8414,3.8283,3.8284,3.8285,0,3.7329,3.7392,3.7468,3.7513,3.755,3.7622,3.7669,3.77,3.7749,3.7826,3.7874,3.7953,3.8018,3.8144,3.8189,3.8264,3.8265,3.8322,3.8276,3.8266,3.8263,3.8258,3.8263,3.833,3.8331,3.8332,3.8333,0,3.7457,3.7472,3.7539,3.7613,3.7669,3.7729,3.7787,3.7823,3.7863,3.7917,3.7998,3.8048,3.8147,3.8225,3.8303,3.8341,3.8343,3.8347,3.8364,3.8356,3.8338,3.8346,3.8185,3.8343,3.8342,3.8341,3.834,3.834,3.7544,3.7599,3.766,3.7735,3.7782,3.7836,3.7893,3.7931,3.7998,3.8081,3.8095,3.818,3.8242,3.8346,3.8386,3.8453,3.844,3.8464,3.847,3.8475,3.8476,3.833,3.8468,3.8468,3.8467,3.8467,3.8467,0,3.767,3.7709,3.7778,3.7859,3.7917,3.7914,3.7979,3.8027,3.8102,3.8159,3.8222,3.8314,3.8389,3.8439,3.8516,3.8559,3.8562,3.8578,3.8574,3.8582,3.8486,3.8462,3.8574,3.8574,3.8574,3.8574,3.8574,3.8574,3.7742,3.7835,3.7857,3.7972,3.8012,3.8094,3.8131,3.8181,3.8226,3.8327,3.839,3.8422,3.8476,3.8556,3.8625,3.8638,3.8664,3.868,3.8692,3.8601,3.8589,3.8578,3.8557,3.8686,3.8686,3.8783,3.8784,3.8784]},{"header":{"parameterUnit":"m.s-1","parameterCategory":1,"la1":30.2991,"la2":30.254,"lo1":-89.0895,"lo2":-89.0444,"dy":0.0017,"dx":0.0017,"nx":28,"ny":28,"refTime":"2025-06-06T21:00:00:Z","depth":0,"parameterNumber":3,"parameterNumberName":"V-component_of_WINDS"},"data":[0,0,0,0,0,0,0,0,0,0,0,0,0,0,0,0,0,0,0,0,0,0,0,0,0,0,0,0,0,0,0,0,0,0,0,0,0,0,0,0,0,0,0,0,0,0,0,0,0,0,0,0,0,0,0,0,0,0,2.0064,2.0064,0,2.0065,2.0065,2.0065,2.0013,2.0011,2.001,2.0009,2.001,2.0012,2.0013,0,0,0,0,0,0,0,0,0,0,0,0,0,2.0017,2.0018,2.0064,2.0064,2.0064,2.0065,2.0065,2.0065,2.0013,2.0011,2.0009,2.0008,2.001,2.0011,2.0013,0,0,0,0,0,0,0,0,0,0,0,0,0,2.003,2.0019,2.0064,2.0038,2.0036,2.0065,2.0065,2.0065,2.0013,2.0011,2.0009,2.0007,2.0009,2.0011,2.0013,2.0067,0,0,2.0019,2.002,0,0,0,0,0,0,0,0,2.0029,2.0032,2.0042,2.004,2.0037,2.0036,2.0049,2.0066,2.0014,2.0022,2.0009,2.0006,2.0021,2.0022,2.0026,2.0067,2.0067,2.002,2.0021,2.0022,2.0022,0,0,0,0,0,0,0,2.0028,2.0031,2.0064,2.0042,2.0039,2.0026,2.0026,2.0052,2.0033,2.0021,2.0017,2.0018,2.0019,2.0025,2.0026,2.0067,2.0019,2.0021,2.0022,2.0023,2.0151,2.0153,0,0,0,0,0,0,2.0031,2.0031,2.0064,2.0064,2.0028,2.0029,2.0028,2.0039,2.0032,2.0029,2.002,2.0015,2.0022,2.0024,2.0026,2.0088,2.0022,2.0023,2.0025,2.0149,2.0152,2.0154,0,0,0,0,0,0,2.003,2.0034,2.0064,2.0047,2.0049,2.0032,2.0044,2.004,2.0045,2.0031,2.0028,2.0029,2.0021,2.0023,2.0057,2.0087,2.0024,2.0026,2.0146,2.015,2.0153,2.0213,0,0,0,0,0,0,2.0029,2.0035,2.0055,2.0047,2.005,2.0095,2.0046,2.0041,2.0049,2.0043,2.0039,2.0036,2.0019,2.0054,2.0059,2.0089,2.0028,2.0144,2.0148,2.0152,2.0208,2.0218,2.0226,0,0,0,0,0,2.0028,2.0072,2.0056,2.0061,2.0076,2.0097,2.0099,2.0078,2.0052,2.0072,2.0063,2.0037,2.0083,2.0058,2.0063,2.0094,2.0142,2.0147,2.0151,2.0204,2.0216,2.0226,0,0,0,0,0,0,2.0084,2.0071,2.0053,2.0096,2.0098,2.0088,2.0113,2.0091,2.0101,2.0096,2.0069,2.0069,2.0107,2.0104,2.0076,2.0145,2.0108,2.0114,2.0146,2.0157,2.0166,2.0166,2.0029,0,0,0,0,0,2.0102,2.012,2.0107,2.0147,2.0149,2.0131,2.014,2.0123,2.0124,2.0125,2.0118,2.0121,2.0135,2.0146,2.0159,2.0207,2.0205,2.0231,2.024,2.0247,2.0253,2.0277,2.0288,2.017,2.017,2.017,0,0,2.0138,2.0133,2.0147,2.0158,2.0158,2.0177,2.0132,2.0155,2.0169,2.0129,2.016,2.0155,2.0156,2.0197,2.0214,2.0195,2.0285,2.0253,2.0259,2.0261,2.0283,2.0294,2.0304,2.0174,2.0173,2.0172,0,0,2.0214,2.0213,2.0245,2.0245,2.0245,2.0232,2.024,2.0234,2.0229,2.0259,2.0229,2.0246,2.0272,2.0274,2.0278,2.0354,2.033,2.0359,2.0406,2.043,2.0439,2.0447,2.0474,2.0483,2.0364,2.0365,2.0365,0,2.026,2.0288,2.0264,2.0289,2.0295,2.0258,2.029,2.0292,2.0296,2.0301,2.0279,2.0311,2.0309,2.0349,2.0368,2.0373,2.038,2.0359,2.0439,2.0447,2.0455,2.048,2.049,2.0368,2.0368,2.0367,2.0367,0,2.0344,2.0364,2.039,2.0394,2.0403,2.0431,2.0412,2.0423,2.0406,2.0396,2.0427,2.0423,2.0435,2.0443,2.0427,2.0481,2.0469,2.0444,2.0406,2.047,2.0493,2.0502,2.0373,2.0372,2.0371,2.037,0,0,2.0456,2.0446,2.0456,2.0457,2.0453,2.0469,2.0495,2.0506,2.0516,2.052,2.0541,2.0564,2.054,2.0545,2.0529,2.055,2.0609,2.0522,2.0522,2.0538,2.0668,2.0687,2.0698,2.0593,2.0595,2.0597,2.0668,0,2.053,2.0574,2.0553,2.06,2.0618,2.0583,2.0605,2.0606,2.0597,2.0611,2.0601,2.0618,2.0586,2.0588,2.0607,2.0598,2.0635,2.0593,2.0613,2.0614,2.0614,2.071,2.073,2.0798,2.0677,2.0678,2.068,0,2.0622,2.0628,2.0677,2.0669,2.0676,2.0697,2.0704,2.0718,2.0717,2.0709,2.0715,2.0693,2.0718,2.068,2.0714,2.0686,2.0693,2.0689,2.0692,2.0692,2.0651,2.0714,2.0819,2.0829,2.0694,2.0692,2.0691,0,2.0698,2.072,2.0751,2.0753,2.0745,2.076,2.0758,2.0755,2.0762,2.0769,2.0773,2.0783,2.0789,2.0797,2.0778,2.0752,2.0815,2.0775,2.0808,2.0809,2.0823,2.0822,2.0931,2.0828,2.0828,2.0828,2.0828,0,2.0782,2.0813,2.0785,2.0804,2.0838,2.0813,2.0847,2.0841,2.0838,2.0856,2.0826,2.0843,2.0818,2.0832,2.0818,2.0848,2.0851,2.0845,2.0841,2.0847,2.0848,2.0851,2.0846,2.0831,2.083,2.083,2.0829,0,2.0873,2.0856,2.0888,2.0877,2.0875,2.09,2.0891,2.0908,2.0897,2.092,2.0923,2.0906,2.0921,2.0903,2.0918,2.0908,2.0949,2.0938,2.0949,2.0946,2.098,2.0977,2.1094,2.1108,2.0997,2.0998,2.0999,0,2.0928,2.095,2.0942,2.0951,2.095,2.0966,2.0973,2.0949,2.0958,2.0958,2.0976,2.0988,2.0997,2.1024,2.1012,2.1023,2.1012,2.1052,2.1013,2.1019,2.1012,2.101,2.1012,2.106,2.1061,2.1062,2.1063,0,2.1026,2.1016,2.1027,2.1035,2.1044,2.105,2.1053,2.1062,2.1037,2.1049,2.1064,2.1071,2.1085,2.1098,2.1105,2.1102,2.1079,2.1076,2.1084,2.1091,2.1096,2.1093,2.097,2.1073,2.1072,2.1071,2.1071,2.107,2.11,2.1118,2.1115,2.1128,2.1128,2.1131,2.1147,2.1137,2.1149,2.1158,2.1144,2.1163,2.1161,2.1168,2.1168,2.1182,2.1165,2.1177,2.118,2.1183,2.1188,2.1094,2.1184,2.1183,2.1183,2.1183,2.1182,0,2.1196,2.1192,2.1205,2.1209,2.122,2.1196,2.1198,2.1208,2.1225,2.1225,2.1234,2.1251,2.1264,2.1253,2.1263,2.1277,2.1266,2.128,2.1279,2.1279,2.1203,2.1195,2.1289,2.1289,2.1289,2.1289,2.1288,2.1288,2.1248,2.1277,2.1267,2.1295,2.1291,2.1309,2.1312,2.1315,2.1314,2.1335,2.1344,2.1337,2.1333,2.1342,2.1353,2.1349,2.1354,2.1372,2.1365,2.1294,2.1284,2.1274,2.1266,2.1373,2.1373,2.1439,2.1439,2.144]}]]